SB KEPS @ AMSAT $ORB13003.N 2Line Orbital Elements 13003.AMSAT
HR AMSAT ORBITAL ELEMENTS FOR AMATEUR SATELLITES IN NASA FORMAT FROM WA5QGD FORT WORTH,TX January 3, 2013 BID: ORB13003.N
DECODE 2-LINE ELSETS WITH THE FOLLOWING KEY: 1 AAAAAU 00 0 0 BBBBB.BBBBBBBB .CCCCCCCC 00000-0 00000-0 0 DDDZ 2 AAAAA EEE.EEEE FFF.FFFF GGGGGGG HHH.HHHH III.IIII JJ.JJJJJJJJKKKKKZ KEY: A-CATALOGNUM B-EPOCHTIME C-DECAY D-ELSETNUM E-INCLINATION F-RAAN G-ECCENTRICITY H-ARGPERIGEE I-MNANOM J-MNMOTION K-ORBITNUM Z-CHECKSUM
TO ALL RADIO AMATEURS BT
AO-07 1 07530U 74089B 13003.56183891 -.00000005 00000-0 23610-3 0 5730 2 07530 101.4185 359.1374 0011567 249.8411 223.6481 12.53593497745154 FO-29 1 24278U 96046B 13003.29258107 -.00000021 00000-0 16757-4 0 174 2 24278 098.5786 083.7491 0349799 231.2293 125.7111 13.52994083809013 SO-33 1 25509U 98061B 13003.18461191 .00000494 00000-0 85302-4 0 4032 2 25509 031.4329 281.7387 0351830 153.6057 328.2212 14.28943948741271 RS-22 1 27939U 03042A 13003.57544695 .00000401 00000-0 84388-4 0 510 2 27939 097.7974 200.0104 0013489 354.3242 005.7802 14.64275684495209 VO-52 1 28650U 05017B 13003.62083576 .00000704 00000-0 91158-4 0 3070 2 28650 097.5791 030.6184 0027342 101.5025 258.9306 14.83477670414688 HO-68 1 36122U 09072B 13003.79865677 -.00000044 00000-0 00000 0 0 1589 2 36122 100.3330 064.8448 0007693 013.3348 346.7972 13.16301197146783 UO-11 1 14781U 84021B 13003.23181110 .00000424 00000-0 61889-4 0 672 2 14781 097.9272 066.7285 0010345 105.1475 255.0882 14.80710514549525 AO-16 1 20439U 90005D 13003.82891333 .00000089 00000-0 48912-4 0 6448 2 20439 098.4556 307.8207 0009709 286.2649 127.1536 14.32126573198711 LO-19 1 20442U 90005G 13003.82160299 .00000103 00000-0 53741-4 0 5769 2 20442 098.4235 310.1350 0010695 275.9381 136.7230 14.32341047198902 AO-27 1 22825U 93061C 13003.85776951 .00000061 00000-0 41070-4 0 2821 2 22825 098.6011 309.7849 0009236 056.5035 337.2789 14.29522853 5151 IO-26 1 22826U 93061D 13002.84506921 .00000094 00000-0 53561-4 0 369 2 22826 098.5950 309.1078 0009698 052.8907 006.1700 14.29802272 5139 GO-32 1 25397U 98043D 13003.82168743 .00000071 00000-0 49642-4 0 9645 2 25397 098.3904 338.9309 0002219 064.5387 295.6025 14.23314954752563 NO-44 1 26931U 01043C 13002.88506654 .00000291 00000-0 14517-3 0 2263 2 26931 067.0539 325.6231 0004686 261.4100 098.6469 14.29876290587799 SO-50 1 27607U 02058C 13003.44666217 .00000549 00000-0 10445-3 0 9579 2 27607 064.5584 045.5871 0066658 207.0235 152.7368 14.72712509539452 CO-55 1 27844U 03031E 13003.66933256 .00000238 00000-0 12958-3 0 5479 2 27844 098.7031 015.1358 0009617 010.6372 053.3226 14.21139156493369 CO-57 1 27848U 03031J 13002.01788780 .00000188 00000-0 10733-3 0 4945 2 27848 098.7114 012.9355 0009696 021.1356 037.3196 14.20874686493061 AO-51 1 28375U 04025K 13003.89155755 .00000122 00000-0 49230-4 0 4541 2 28375 098.1762 326.1541 0083310 152.5761 207.9855 14.41051314447672 CP3 1 31129U 07012N 13003.58215116 .00000706 00000-0 16941-3 0 3566 2 31129 097.8878 005.6358 0099517 219.3463 140.0476 14.53411417303088 CO-65 1 32785U 08021C 13003.76300956 .00001055 00000-0 13437-3 0 5155 2 32785 097.7758 065.8352 0015885 124.6737 355.5051 14.83497314253497 PRISM 1 33493U 09002B 13003.79510753 .00001914 00000-0 23030-3 0 4099 2 33493 098.1944 155.6433 0018620 009.8458 350.3127 14.85052642213517 SOHLA-1 1 33496U 09002E 13003.85672145 .00000330 00000-0 63176-4 0 9332 2 33496 098.1201 120.4938 0007961 121.5576 024.6105 14.70155929211729 SO-67 1 35870U 09049F 13003.81204610 .00003293 00000-0 13241-3 0 6655 2 35870 097.2113 038.4592 0002463 139.8633 306.2897 15.25587254183187 TISAT-1 1 36799U 10035E 13003.75734559 .00001329 00000-0 17133-3 0 6816 2 36799 098.0480 087.4792 0013642 240.5446 119.4398 14.82712858134204 STUDSAT 1 36801U 10035G 13002.34238803 .00003973 00000-0 45534-3 0 5604 2 36801 098.0566 087.8726 0011546 227.9970 132.0263 14.86469926134083 FO-69 1 37227U 0 13003.48865215 .00000345 00000-0 56334-4 0 00311 2 37227 071.9701 229.8804 0018094 302.8977 057.0445 14.77327512004580 FO-70 1 37380U 0 13003.25745019 .00000282 00000-0 47707-4 0 00296 2 37380 071.9739 231.2059 0018548 300.3984 059.5344 14.77070463004625 ALMASAT-1 1 38078U 12006B 13003.80750098 .00018363 00000-0 48066-3 0 8817 2 38078 069.4781 220.1839 0725209 355.9336 003.6032 14.17617966 45895 XATCOBEO 1 38082U 12006F 13003.83251416 .00044337 00000-0 96448-3 0 8205 2 38082 069.4788 209.5478 0653043 350.0779 008.7893 14.36611818 46185 NOAA-10 1 16969U 86073A 13003.57503162 .00000090 00000-0 54093-4 0 1975 2 16969 098.5632 034.8657 0012093 013.3858 149.5997 14.27605814368450 NOAA-11 1 19531U 88089A 13003.48503568 -.00000052 00000-0 -44469-5 0 1902 2 19531 098.7226 090.3331 0011139 017.9933 051.3086 14.14998264252832 NOAA-12 1 21263U 91032A 13003.64915928 .00000079 00000-0 52129-4 0 6705 2 21263 098.7123 030.2197 0013652 342.8255 017.2461 14.25540084125118 MET-3/5 1 21655U 91056A 13003.85604986 -.00000287 00000-0 -77768-3 0 5884 2 21655 082.5557 010.4037 0013620 175.8383 184.2855 13.17046893 28303 MET-2/21 1 22782U 93055A 13003.19948385 .00000024 00000-0 80624-5 0 6276 2 22782 082.5475 233.8121 0021369 313.3770 197.5109 13.83696061976826 OKEAN-4 1 23317U 94066A 13003.22506206 .00000480 00000-0 54318-4 0 1002 2 23317 082.5381 204.1328 0022842 053.0874 307.2430 14.84179764984472 NOAA-14 1 23455U 94089A 13003.60013355 -.00000004 00000-0 20878-4 0 1513 2 23455 098.8160 090.4653 0010220 102.9768 257.2547 14.13887910929114 NOAA-15 1 25338U 98030A 13003.50376355 .00000160 00000-0 87074-4 0 5568 2 25338 098.7099 354.7306 0009798 245.0724 114.9446 14.25164199761386 RESURS 1 25394U 98043A 13003.13512889 .00000045 00000-0 37355-4 0 2732 2 25394 098.3426 347.0641 0001812 054.2071 009.4682 14.24315270752869 FENGYUN1 1 25730U 99025A 13003.52273351 .00002049 00000-0 11835-2 0 7776 2 25730 098.8649 325.2431 0021455 146.0408 328.7279 14.09998053702839 OKEAN-0 1 25860U 99039A 13003.89159227 .00000412 00000-0 69553-4 0 8326 2 25860 097.9678 328.7844 0000978 077.4754 338.5774 14.74439067724143 NOAA-16 1 26536U 00055A 13003.46165302 .00000416 00000-0 24841-3 0 350 2 26536 099.0674 054.4075 0009965 237.4832 122.5383 14.12826473633310 NOAA-17 1 27453U 02032A 13003.41988367 .00000124 00000-0 71031-4 0 9736 2 27453 098.3207 026.1778 0010740 291.5062 068.4976 14.24527059547263 NOAA-18 1 28654U 05018A 13003.43067461 .00000117 00000-0 89582-4 0 4559 2 28654 099.0765 329.4810 0013933 314.8368 045.1661 14.11753699392814 NOAA-19 1 33591U 09005A 13003.41274133 -.00000095 00000-0 -27879-4 0 6403 2 33591 098.8871 306.9236 0014153 172.1577 187.9820 14.11438384201259 HUBBLE 1 20580U 90037B 13003.15006309 .00001315 00000-0 82635-4 0 1467 2 20580 028.4703 274.3499 0003046 034.9663 325.1126 15.03172912 44833 ISS 1 25544U 98067A 13003.92960049 .00006001 00000-0 10558-3 0 9546 2 25544 051.6457 204.3137 0016410 119.4792 030.6842 15.51872166809197 CO-58 1 28895U 05043F 13003.09750272 .00000499 00000-0 11092-3 0 3704 2 28895 097.8889 226.2931 0016619 240.8313 119.1220 14.60912640382846 FALCON 1 30776U 07006E 13003.77827815 .00005107 00000-0 31664-3 0 5215 2 30776 035.4305 130.1311 0001959 310.4811 203.5747 15.09246543320559 MAST 1 31126U 07012K 13003.92315172 .00000266 00000-0 69295-4 0 6491 2 31126 097.8743 009.3040 0092907 204.3602 155.3196 14.54396791303446 CAPE1 1 31130U 07012P 13003.22726007 .00000425 00000-0 10639-3 0 6609 2 31130 097.8874 004.9660 0100221 221.2446 138.1141 14.53254383302827 COMPASS 1 32787U 08021E 13003.82382137 .00001803 00000-0 21790-3 0 5089 2 32787 097.7761 066.5396 0016395 122.6047 304.8604 14.84842771253570 AAUSAT2 1 32788U 08021F 13003.81214206 .00001981 00000-0 23660-3 0 4994 2 32788 097.7770 067.0342 0015857 122.5280 302.3416 14.85241540253604 DO-64 1 32789U 08021G 13003.82206034 .00003086 00000-0 34699-3 0 5203 2 32789 097.7908 069.9331 0015437 117.8406 306.8583 14.87337213253685 CO-66 1 32791U 08021J 13003.22128942 .00001340 00000-0 16651-3 0 4962 2 32791 097.7769 065.5089 0016763 124.8650 267.4294 14.84104627253406 RS-30 1 32953U 08025A 13003.54384731 .00000010 00000-0 00000 0 0 4691 2 32953 082.4997 170.5558 0018178 230.4368 129.5106 12.43030710209450 PHARMSAT 1 35002U 09028B 12226.86484473 .07728342 73476-5 57159-3 0 789 2 35002 040.4341 050.6671 0012079 300.9773 059.0492 16.39309245183554 METEOR-M 1 35865U 09049A 13003.77320493 -.00000027 00000-0 73243-5 0 1076 2 35865 098.6276 060.0455 0002236 171.5495 188.5719 14.21877508171104 RS-38 1 35869U 09049E 13003.76345950 .00000023 00000-0 30080-4 0 732 2 35869 098.6229 059.9938 0004211 181.8892 178.2270 14.22107004171127 JUGNU 1 37839U 11058B 13003.29186783 .00000620 00000-0 19019-3 0 3058 2 37839 019.9606 225.9225 0018544 267.0377 092.7912 14.12117522 63560 SRMSAT 1 37841U 11058D 13002.91170186 .00000264 00000-0 00000 0 0 3059 2 37841 019.9685 237.0267 0012085 222.9970 136.9490 14.10191625 63413 RAX-2 1 37853U 11061D 13003.91739817 .00005397 00000-0 41968-3 0 3895 2 37853 101.7059 141.7240 0240188 137.8753 224.1186 14.82017421 64102 AUBIESAT 1 37854U 11061E 13003.33760678 .00006149 00000-0 46677-3 0 3877 2 37854 101.7097 141.4295 0241234 138.6649 223.3100 14.82584713 64029 HRBE 1 37855U 11061F 13002.90431150 .00005969 00000-0 45663-3 0 3839 2 37855 101.7100 140.6659 0241363 140.0723 221.8506 14.82325202 63953 RS-39 1 38051U 11062C 13003.82353255 .00009604 00000-0 35436-3 0 430 2 38051 051.6388 281.0722 0013406 040.3019 025.6669 15.28351420 52612 E-STAR 1 38079U 12006C 13003.67348717 .00037445 00000-0 83302-3 0 7738 2 38079 069.4805 212.2939 0675403 351.6631 007.3701 14.31428231 46095 GOLIAT 1 38085U 12006J 13003.69022442 .00034824 00000-0 78005-3 0 7384 2 38085 069.4813 213.3688 0681775 352.2505 006.8451 14.29944484 46063 HORYU-2 1 38340U 12025D 13003.86847000 .00000903 00000-0 15713-3 0 3051 2 38340 098.1987 310.3301 0013855 055.3885 304.8598 14.70511680 33960 RS-40 1 38736U 12041D 13002.73659152 .00000010 00000-0 00000 0 0 1508 2 38736 082.4781 258.2909 0018905 333.2716 026.7392 12.42649326 19695 PROITERES 1 38756U 12047B 13003.78336627 .00000402 00000-0 69292-4 0 3792 2 38756 098.2725 077.7006 0011508 271.2379 088.7512 14.74029505 17171 AENEAS 1 38760U 0 12362.45618703 .00003317 00000-0 30954-3 0 00261 2 38760 064.6739 080.1262 0216494 260.4485 097.2099 14.79915610003535 CSSWE-D 1 38761U 0 12362.45838096 .00002744 00000-0 25873-3 0 00246 2 38761 064.6742 080.1381 0218126 260.5019 097.1363 14.79742253003556 CXBN-E 1 38762U 0 12362.51998902 .00003134 00000-0 29232-3 0 00233 2 38762 064.6756 079.9149 0217771 260.2501 097.3925 14.79877027003631 OBJECT F 1 38763U 0 12362.45521558 .00002532 00000-0 23959-3 0 00226 2 38763 064.6742 080.1199 0218533 260.5600 097.0729 14.79766060003561 CINEMA-G 1 38764U 0 12362.52098107 .00002492 00000-0 23608-3 0 00219 2 38764 064.6735 079.9005 0218157 260.5336 097.1019 14.79809930003538 CP5 1 38765U 0 12362.51469427 .00003425 00000-0 31783-3 0 00249 2 38765 064.6724 079.8680 0217159 260.1766 097.4748 14.79969424003536 RAIKO 1 38852U 98067CN 13003.85165722 .00028751 00000-0 38416-3 0 976 2 38852 051.6470 202.5976 0017573 114.1872 246.0962 15.57641913 14128 FITSAT 1 1 38853U 98067CP 13003.81499280 .00035382 00000-0 45004-3 0 959 2 38853 051.6467 202.3603 0015117 129.2254 231.0158 15.58889719 14178 TechEdSat 1 38854U 98067CQ 13003.86370575 .00054240 00000-0 61339-3 0 1044 2 38854 051.6443 201.1772 0014481 134.5009 225.7172 15.61779095 14194 F 1 1 38855U 98067CR 13003.42511455 .00050539 00000-0 58034-3 0 1079 2 38855 051.6447 203.4966 0015140 134.2643 225.9614 15.61401578 14015 WeWish 1 38856U 98067CS 13003.77583743 .00107147 00000-0 93492-3 0 1229 2 38856 051.6406 199.8271 0015337 137.0131 223.2067 15.67993507 14094 /EX
participants (1)
-
Ray Hoad